Regional Weather Roundup
Issued by NWS

Home | Current Version | Previous Version | Graphics & Text | Print | Product List | Glossary On
Versions: 1 2 3 4 5 6 7 8 9 10 11 12 13 14 15 16 17 18 19 20 21 22 23 24 25 26 27 28 29 30 31 32 33 34 35 36 37 38 39 40 41 42 43 44 45 46 47 48 49 50
000
ASUS43 KFSD 221602
RWRSD

WEATHER ROUNDUP FOR SOUTH DAKOTA
NATIONAL WEATHER SERVICE SIOUX FALLS SD
1000 AM CST MON DEC 22 2014

NOTE: "FAIR" INDICATES FEW OR NO CLOUDS BELOW 12,000 FEET WITH NO
SIGNIFICANT WEATHER AND/OR OBSTRUCTIONS TO VISIBILITY.


SDZ001>005-009-010-012>017-221700-
NORTHWEST AND NORTH CENTRAL SOUTH DAKOTA

CITY           SKY/WX    TMP DP  RH WIND       PRES   REMARKS
BUFFALO          N/A     36  27  69 NW32G45   29.45R
FAITH            N/A     35  27  72 NW26G36   29.48S WCI  22
MOBRIDGE       CLOUDY    33  32  96 N7        29.42S FOG     WCI  27
$$

SDZ012>016-024>037-041>051-057-063-072>074-221700-
SOUTHWEST AND SOUTH CENTRAL SOUTH DAKOTA

CITY           SKY/WX    TMP DP  RH WIND       PRES   REMARKS
RAPID CTY ARPT PTSUNNY   41  21  44 NW23G31   29.54S
PIERRE         CLOUDY    37  34  89 NW15      29.46R
CUSTER         MOSUNNY   30  17  58 NW17G31   29.55S WCI  18
PHILIP         CLOUDY    39  29  67 NW18G33   29.52S
PINE RIDGE     MOSUNNY   36  27  69 W14G22    29.58F
WINNER         LGT RAIN  39  34  82 NW20G26   29.48S
$$

SDZ004>011-016>023-039-040-221700-
NORTHEAST SOUTH DAKOTA

CITY           SKY/WX    TMP DP  RH WIND       PRES   REMARKS
ABERDEEN       SNOW      33  32  96 CALM      29.44R VSB 1/2
WATERTOWN      CLOUDY    38  36  92 SE10      29.42S
SISSETON         N/A     36  36 100 S12       29.46S
$$

SDZ017-020-022-023-036>040-048>070-221700-
SOUTHEAST SOUTH DAKOTA

CITY           SKY/WX    TMP DP  RH WIND       PRES   REMARKS
SIOUX FALLS    LGT RAIN  40  40 100 S7        29.45S FOG
HURON          CLOUDY    30  28  92 NW6       29.44S WCI  24
MITCHELL       CLOUDY    35  33  92 W6        29.46R
YANKTON        CLOUDY    37  36  93 W10       29.47S
$$

ABBREVIATIONS USED IN REMARKS
   TC - TEMPERATURE IN CELSIUS
  WCI - WIND CHILL INDEX
   HX - HEAT INDEX
  VSB - VISIBILITY




USA.gov is the U.S. government's official web portal to all federal, state and local government web resources and services.